This is the latest recevied weather packets stored in our database for station/object DM2KB-13. If no packets are shown the sender has not sent any weather packets the latest 10 day(s).
| Time | Temp. | Humidity | Pressure | Rain* | Wind** | Luminosity | Snow |
|---|---|---|---|---|---|---|---|
| 1777804335 | 22.22° C | 48% | 1009.9 hPa | 0 mm | - | 596 W/m² | - |
| 1777804035 | 22.22° C | 48% | 1010 hPa | 0 mm | - | 517 W/m² | - |
| 1777803734 | 22.22° C | 48% | 1010 hPa | 0 mm | - | 575 W/m² | - |
| 1777803434 | 22.78° C | 48% | 1010 hPa | 0 mm | - | 469 W/m² | - |
| 1777803134 | 22.78° C | 49% | 1010 hPa | 0 mm | - | 540 W/m² | - |
| 1777802834 | 22.78° C | 49% | 1010 hPa | 0 mm | - | 499 W/m² | - |
| 1777802533 | 22.78° C | 50% | 1010 hPa | 0 mm | - | 733 W/m² | - |
| 1777802233 | 22.22° C | 52% | 1010 hPa | 0 mm | - | 751 W/m² | - |
| 1777801933 | 22.22° C | 53% | 1010 hPa | 0 mm | - | 687 W/m² | - |
| 1777801632 | 21.67° C | 55% | 1010 hPa | 0 mm | - | 649 W/m² | - |
| 1777801332 | 21.11° C | 56% | 1010.1 hPa | 0 mm | - | 749 W/m² | - |
| 1777801032 | 21.11° C | 55% | 1010.2 hPa | 0 mm | - | 441 W/m² | - |
| 1777800732 | 21.67° C | 54% | 1010.2 hPa | 0 mm | - | 364 W/m² | - |
| 1777800431 | 21.67° C | 55% | 1010.2 hPa | 0 mm | - | 643 W/m² | - |
| 1777800131 | 21.67° C | 56% | 1010.3 hPa | 0 mm | - | 364 W/m² | - |
| 1777799831 | 21.67° C | 57% | 1010.3 hPa | 0 mm | - | 621 W/m² | - |
| 1777799530 | 21.67° C | 56% | 1010.3 hPa | 0 mm | - | 373 W/m² | - |
| 1777799230 | 21.67° C | 57% | 1010.3 hPa | 0 mm | - | 638 W/m² | - |
| 1777798930 | 21.11° C | 59% | 1010.3 hPa | 0 mm | - | 603 W/m² | - |
| 1777798630 | 21.11° C | 58% | 1010.2 hPa | 0 mm | - | 445 W/m² | - |
| 1777798329 | 21.11° C | 58% | 1010.2 hPa | 0 mm | - | 550 W/m² | - |
| 1777798029 | 20.56° C | 59% | 1010.3 hPa | 0 mm | - | 638 W/m² | - |
| 1777797729 | 20.56° C | 59% | 1010.3 hPa | 0 mm | - | 527 W/m² | - |
| 1777797428 | 20.56° C | 60% | 1010.2 hPa | 0 mm | - | 462 W/m² | - |
| 1777797128 | 20° C | 61% | 1010.2 hPa | 0 mm | - | 547 W/m² | - |
* Rain latest hour (hover to see other rain measurements)
** Current wind speed in m/s (hover to see current wind gust speed)